Year,Month,Day,Hour,Minute,Value (Times are PST for windgust in km/hr)
2010,11,14,00,00,1.60
2010,11,14,00,02,1.60
2010,11,14,00,05,3.20
2010,11,14,00,06,3.20
2010,11,14,00,08,4.80
2010,11,14,00,09,3.20
2010,11,14,00,10,4.80
2010,11,14,00,11,1.60
2010,11,14,00,12,3.20
2010,11,14,00,17,1.60
2010,11,14,00,19,1.60
2010,11,14,00,20,1.60
2010,11,14,00,21,1.60
2010,11,14,00,22,1.60
2010,11,14,00,23,1.60
2010,11,14,00,24,1.60
2010,11,14,00,28,1.60
2010,11,14,00,29,1.60
2010,11,14,00,30,3.20
2010,11,14,00,31,3.20
2010,11,14,00,32,3.20
2010,11,14,00,33,3.20
2010,11,14,00,35,1.60
2010,11,14,00,36,3.20
2010,11,14,00,40,1.60
2010,11,14,00,43,1.60
2010,11,14,00,47,1.60
2010,11,14,00,48,1.60
2010,11,14,00,49,1.60
2010,11,14,00,50,1.60
2010,11,14,00,53,1.60
2010,11,14,00,54,1.60
2010,11,14,00,55,1.60
2010,11,14,00,56,3.20
2010,11,14,00,57,1.60
2010,11,14,00,58,1.60
2010,11,14,00,59,4.80
2010,11,14,01,00,3.20
2010,11,14,01,01,3.20
2010,11,14,01,03,3.20
2010,11,14,01,04,3.20
2010,11,14,01,05,1.60
2010,11,14,01,06,1.60
2010,11,14,01,07,4.80
2010,11,14,01,08,3.20
2010,11,14,01,09,1.60
2010,11,14,01,10,1.60
2010,11,14,01,13,1.60
2010,11,14,01,14,1.60
2010,11,14,01,18,1.60
2010,11,14,01,19,1.60
2010,11,14,01,20,1.60
2010,11,14,01,21,3.20
2010,11,14,01,22,1.60
2010,11,14,01,23,6.40
2010,11,14,01,24,3.20
2010,11,14,01,25,1.60
2010,11,14,01,27,1.60
2010,11,14,01,28,1.60
2010,11,14,01,29,3.20
2010,11,14,01,30,1.60
2010,11,14,01,31,1.60
2010,11,14,01,34,3.20
2010,11,14,01,35,3.20
2010,11,14,01,37,3.20
2010,11,14,01,38,1.60
2010,11,14,01,39,1.60
2010,11,14,01,41,1.60
2010,11,14,01,43,1.60
2010,11,14,01,44,4.80
2010,11,14,01,45,1.60
2010,11,14,01,46,1.60
2010,11,14,01,47,3.20
2010,11,14,01,48,1.60
2010,11,14,01,49,3.20
2010,11,14,01,50,3.20
2010,11,14,01,51,4.80
2010,11,14,01,52,4.80
2010,11,14,01,53,3.20
2010,11,14,01,54,4.80
2010,11,14,01,55,4.80
2010,11,14,01,56,4.80
2010,11,14,01,57,4.80
2010,11,14,01,58,3.20
2010,11,14,01,59,3.20
2010,11,14,02,00,1.60
2010,11,14,02,01,4.80
2010,11,14,02,02,4.80
2010,11,14,02,04,1.60
2010,11,14,02,05,1.60
2010,11,14,02,06,1.60
2010,11,14,02,09,1.60
2010,11,14,02,10,3.20
2010,11,14,02,11,1.60
2010,11,14,02,12,3.20
2010,11,14,02,13,1.60
2010,11,14,02,17,3.20
2010,11,14,02,18,1.60
2010,11,14,02,19,1.60
2010,11,14,02,20,1.60
2010,11,14,02,23,1.60
2010,11,14,02,24,1.60
2010,11,14,02,25,1.60
2010,11,14,02,26,1.60
2010,11,14,02,30,1.60
2010,11,14,02,31,1.60
2010,11,14,02,32,4.80
2010,11,14,02,33,3.20
2010,11,14,02,34,3.20
2010,11,14,02,35,3.20
2010,11,14,02,36,3.20
2010,11,14,02,37,1.60
2010,11,14,02,38,3.20
2010,11,14,02,39,4.80
2010,11,14,02,40,4.80
2010,11,14,02,41,3.20
2010,11,14,02,42,3.20
2010,11,14,02,54,1.60
2010,11,14,02,55,1.60
2010,11,14,02,56,1.60
2010,11,14,02,59,1.60
2010,11,14,03,01,1.60
2010,11,14,03,02,1.60
2010,11,14,03,12,3.20
2010,11,14,03,15,3.20
2010,11,14,03,16,1.60
2010,11,14,03,17,1.60
2010,11,14,03,18,3.20
2010,11,14,03,19,3.20
2010,11,14,03,20,1.60
2010,11,14,03,21,1.60
2010,11,14,03,23,3.20
2010,11,14,03,24,4.80
2010,11,14,03,25,4.80
2010,11,14,03,27,3.20
2010,11,14,03,28,1.60
2010,11,14,03,29,1.60
2010,11,14,03,30,1.60
2010,11,14,03,31,1.60
2010,11,14,03,33,1.60
2010,11,14,03,34,1.60
2010,11,14,03,35,1.60
2010,11,14,03,38,3.20
2010,11,14,03,39,1.60
2010,11,14,03,40,1.60
2010,11,14,03,42,4.80
2010,11,14,03,43,4.80
2010,11,14,03,44,1.60
2010,11,14,03,45,4.80
2010,11,14,03,46,4.80
2010,11,14,03,47,4.80
2010,11,14,03,48,3.20
2010,11,14,03,49,1.60
2010,11,14,03,50,1.60
2010,11,14,03,51,1.60
2010,11,14,03,52,3.20
2010,11,14,03,53,3.20
2010,11,14,03,54,3.20
2010,11,14,03,55,4.80
2010,11,14,03,56,1.60
2010,11,14,03,57,3.20
2010,11,14,03,58,4.80
2010,11,14,03,59,1.60
2010,11,14,04,00,1.60
2010,11,14,04,01,3.20
2010,11,14,04,02,4.80
2010,11,14,04,03,1.60
2010,11,14,04,04,1.60
2010,11,14,04,05,3.20
2010,11,14,04,06,1.60
2010,11,14,04,07,1.60
2010,11,14,04,09,3.20
2010,11,14,04,10,4.80
2010,11,14,04,11,3.20
2010,11,14,04,12,1.60
2010,11,14,04,13,1.60
2010,11,14,04,14,3.20
2010,11,14,04,15,3.20
2010,11,14,04,16,3.20
2010,11,14,04,17,1.60
2010,11,14,04,21,1.60
2010,11,14,04,22,3.20
2010,11,14,04,23,3.20
2010,11,14,04,24,1.60
2010,11,14,04,25,1.60
2010,11,14,04,26,3.20
2010,11,14,04,27,4.80
2010,11,14,04,28,1.60
2010,11,14,04,29,1.60
2010,11,14,04,30,1.60
2010,11,14,04,31,3.20
2010,11,14,04,32,3.20
2010,11,14,04,33,3.20
2010,11,14,04,37,6.40
2010,11,14,04,38,3.20
2010,11,14,04,39,4.80
2010,11,14,04,40,4.80
2010,11,14,04,41,3.20
2010,11,14,04,44,3.20
2010,11,14,04,45,3.20
2010,11,14,04,46,4.80
2010,11,14,04,47,3.20
2010,11,14,04,49,3.20
2010,11,14,04,50,3.20
2010,11,14,04,51,3.20
2010,11,14,04,52,3.20
2010,11,14,04,53,1.60
2010,11,14,04,54,1.60
2010,11,14,04,55,3.20
2010,11,14,04,56,1.60
2010,11,14,04,57,1.60
2010,11,14,04,58,1.60
2010,11,14,04,59,1.60
2010,11,14,05,00,4.80
2010,11,14,05,01,4.80
2010,11,14,05,02,3.20
2010,11,14,05,03,3.20
2010,11,14,05,04,3.20
2010,11,14,05,05,1.60
2010,11,14,05,06,3.20
2010,11,14,05,08,1.60
2010,11,14,05,17,1.60
2010,11,14,05,18,1.60
2010,11,14,05,19,1.60
2010,11,14,05,27,1.60
2010,11,14,05,28,1.60
2010,11,14,05,29,1.60
2010,11,14,05,30,3.20
2010,11,14,05,31,1.60
2010,11,14,05,32,1.60
2010,11,14,05,33,3.20
2010,11,14,05,34,1.60
2010,11,14,05,46,1.60
2010,11,14,05,47,1.60
2010,11,14,06,48,1.60
2010,11,14,06,49,1.60
2010,11,14,07,03,1.60
2010,11,14,07,04,1.60
2010,11,14,07,05,1.60
2010,11,14,07,07,1.60
2010,11,14,07,08,3.20
2010,11,14,07,10,1.60
2010,11,14,07,12,3.20
2010,11,14,07,13,1.60
2010,11,14,07,15,1.60
2010,11,14,07,16,1.60
2010,11,14,07,17,1.60
2010,11,14,07,18,1.60
2010,11,14,07,19,1.60
2010,11,14,07,20,1.60
2010,11,14,07,21,1.60
2010,11,14,07,22,1.60
2010,11,14,07,24,1.60
2010,11,14,07,25,1.60
2010,11,14,07,27,1.60
2010,11,14,07,29,1.60
2010,11,14,07,30,1.60
2010,11,14,07,31,1.60
2010,11,14,07,32,1.60
2010,11,14,07,33,3.20
2010,11,14,07,34,1.60
2010,11,14,07,35,1.60
2010,11,14,07,36,1.60
2010,11,14,07,37,3.20
2010,11,14,07,38,1.60
2010,11,14,07,39,3.20
2010,11,14,07,40,3.20
2010,11,14,07,41,1.60
2010,11,14,07,42,1.60
2010,11,14,07,43,1.60
2010,11,14,07,44,3.20
2010,11,14,07,45,1.60
2010,11,14,07,47,1.60
2010,11,14,07,48,1.60
2010,11,14,07,49,1.60
2010,11,14,07,51,1.60
2010,11,14,07,53,1.60
2010,11,14,07,54,1.60
2010,11,14,08,00,1.60
2010,11,14,08,01,1.60
2010,11,14,08,02,1.60
2010,11,14,08,03,1.60
2010,11,14,08,04,1.60
2010,11,14,08,05,1.60
2010,11,14,08,06,1.60
2010,11,14,08,07,3.20
2010,11,14,08,08,3.20
2010,11,14,08,09,3.20
2010,11,14,08,10,1.60
2010,11,14,08,19,1.60
2010,11,14,08,22,1.60
2010,11,14,08,23,1.60
2010,11,14,08,24,1.60
2010,11,14,08,51,1.60
2010,11,14,08,54,1.60
2010,11,14,08,56,1.60
2010,11,14,08,58,1.60
2010,11,14,08,59,1.60
2010,11,14,09,00,1.60
2010,11,14,09,01,1.60
2010,11,14,09,02,1.60
2010,11,14,09,06,1.60
2010,11,14,09,34,1.60
2010,11,14,09,50,1.60
2010,11,14,09,51,1.60
2010,11,14,09,52,1.60
2010,11,14,09,53,1.60
2010,11,14,09,54,1.60
2010,11,14,09,55,1.60
2010,11,14,09,56,1.60
2010,11,14,09,58,1.60
2010,11,14,09,59,1.60
2010,11,14,10,00,1.60
2010,11,14,10,01,1.60
2010,11,14,10,02,1.60
2010,11,14,10,03,1.60
2010,11,14,10,04,1.60
2010,11,14,10,05,1.60
2010,11,14,10,06,1.60
2010,11,14,10,07,1.60
2010,11,14,10,11,1.60
2010,11,14,10,12,1.60
2010,11,14,10,13,1.60
2010,11,14,10,14,1.60
2010,11,14,10,15,1.60
2010,11,14,10,16,1.60
2010,11,14,10,17,1.60
2010,11,14,10,18,1.60
2010,11,14,10,19,1.60
2010,11,14,10,20,1.60
2010,11,14,10,21,1.60
2010,11,14,10,23,1.60
2010,11,14,10,24,1.60
2010,11,14,10,25,4.80
2010,11,14,10,26,3.20
2010,11,14,10,27,1.60
2010,11,14,10,28,1.60
2010,11,14,10,29,1.60
2010,11,14,10,30,1.60
2010,11,14,10,31,1.60
2010,11,14,10,32,1.60
2010,11,14,10,33,4.80
2010,11,14,10,34,3.20
2010,11,14,10,35,3.20
2010,11,14,10,36,1.60
2010,11,14,10,37,1.60
2010,11,14,10,38,3.20
2010,11,14,10,39,1.60
2010,11,14,10,40,1.60
2010,11,14,10,41,1.60
2010,11,14,10,42,1.60
2010,11,14,10,43,3.20
2010,11,14,10,44,3.20
2010,11,14,10,45,4.80
2010,11,14,10,46,3.20
2010,11,14,10,47,1.60
2010,11,14,10,48,3.20
2010,11,14,10,49,1.60
2010,11,14,10,50,3.20
2010,11,14,10,51,6.40
2010,11,14,10,52,6.40
2010,11,14,10,53,4.80
2010,11,14,10,54,3.20
2010,11,14,10,55,3.20
2010,11,14,10,56,3.20
2010,11,14,10,57,4.80
2010,11,14,10,58,3.20
2010,11,14,10,59,1.60
2010,11,14,11,00,1.60
2010,11,14,11,01,1.60
2010,11,14,11,02,3.20
2010,11,14,11,03,3.20
2010,11,14,11,04,1.60
2010,11,14,11,05,1.60
2010,11,14,11,06,1.60
2010,11,14,11,07,3.20
2010,11,14,11,08,3.20
2010,11,14,11,09,4.80
2010,11,14,11,10,1.60
2010,11,14,11,11,3.20
2010,11,14,11,12,3.20
2010,11,14,11,13,1.60
2010,11,14,11,14,4.80
2010,11,14,11,15,4.80
2010,11,14,11,16,3.20
2010,11,14,11,17,1.60
2010,11,14,11,18,1.60
2010,11,14,11,20,1.60
2010,11,14,11,21,1.60
2010,11,14,11,22,3.20
2010,11,14,11,24,3.20
2010,11,14,11,25,4.80
2010,11,14,11,26,4.80
2010,11,14,11,27,3.20
2010,11,14,11,28,1.60
2010,11,14,11,29,1.60
2010,11,14,11,30,1.60
2010,11,14,11,31,3.20
2010,11,14,11,34,3.20
2010,11,14,11,35,3.20
2010,11,14,11,36,1.60
2010,11,14,11,37,1.60
2010,11,14,11,38,1.60
2010,11,14,11,39,3.20
2010,11,14,11,40,1.60
2010,11,14,11,41,1.60
2010,11,14,11,42,3.20
2010,11,14,11,43,1.60
2010,11,14,11,48,1.60
2010,11,14,11,51,1.60
2010,11,14,11,53,1.60
2010,11,14,11,54,1.60
2010,11,14,11,55,1.60
2010,11,14,11,56,1.60
2010,11,14,11,57,1.60
2010,11,14,11,58,1.60
2010,11,14,11,59,1.60
2010,11,14,12,01,1.60
2010,11,14,12,11,1.60
2010,11,14,12,12,1.60
2010,11,14,12,13,1.60
2010,11,14,12,14,1.60
2010,11,14,12,15,3.20
2010,11,14,12,16,3.20
2010,11,14,12,17,1.60
2010,11,14,12,18,3.20
2010,11,14,12,19,1.60
2010,11,14,12,20,1.60
2010,11,14,12,21,3.20
2010,11,14,12,22,1.60
2010,11,14,12,23,1.60
2010,11,14,12,24,1.60
2010,11,14,12,25,1.60
2010,11,14,12,26,1.60
2010,11,14,12,27,1.60
2010,11,14,12,30,1.60
2010,11,14,12,31,3.20
2010,11,14,12,32,3.20
2010,11,14,12,33,3.20
2010,11,14,12,34,4.80
2010,11,14,12,35,4.80
2010,11,14,12,36,4.80
2010,11,14,12,37,4.80
2010,11,14,12,39,1.60
2010,11,14,12,40,1.60
2010,11,14,12,41,1.60
2010,11,14,12,43,1.60
2010,11,14,12,44,4.80
2010,11,14,12,45,1.60
2010,11,14,12,46,3.20
2010,11,14,12,47,3.20
2010,11,14,12,50,3.20
2010,11,14,12,51,3.20
2010,11,14,12,52,1.60
2010,11,14,12,53,3.20
2010,11,14,12,54,4.80
2010,11,14,12,55,4.80
2010,11,14,12,56,4.80
2010,11,14,12,57,3.20
2010,11,14,12,58,6.40
2010,11,14,12,59,6.40
2010,11,14,13,00,8.10
2010,11,14,13,01,4.80
2010,11,14,13,02,3.20
2010,11,14,13,03,1.60
2010,11,14,13,04,1.60
2010,11,14,13,05,1.60
2010,11,14,13,06,6.40
2010,11,14,13,07,6.40
2010,11,14,13,08,6.40
2010,11,14,13,09,6.40
2010,11,14,13,10,4.80
2010,11,14,13,11,3.20
2010,11,14,13,12,6.40
2010,11,14,13,13,4.80
2010,11,14,13,14,3.20
2010,11,14,13,15,4.80
2010,11,14,13,16,3.20
2010,11,14,13,17,8.10
2010,11,14,13,18,4.80
2010,11,14,13,19,6.40
2010,11,14,13,20,6.40
2010,11,14,13,21,6.40
2010,11,14,13,22,4.80
2010,11,14,13,23,6.40
2010,11,14,13,24,6.40
2010,11,14,13,25,6.40
2010,11,14,13,26,4.80
2010,11,14,13,27,4.80
2010,11,14,13,28,3.20
2010,11,14,13,29,4.80
2010,11,14,13,30,8.10
2010,11,14,13,31,4.80
2010,11,14,13,32,4.80
2010,11,14,13,33,8.10
2010,11,14,13,34,6.40
2010,11,14,13,35,6.40
2010,11,14,13,36,3.20
2010,11,14,13,37,6.40
2010,11,14,13,38,4.80
2010,11,14,13,39,6.40
2010,11,14,13,40,6.40
2010,11,14,13,41,4.80
2010,11,14,13,42,6.40
2010,11,14,13,43,11.30
2010,11,14,13,44,8.10
2010,11,14,13,45,6.40
2010,11,14,13,46,6.40
2010,11,14,13,47,3.20
2010,11,14,13,48,4.80
2010,11,14,13,49,4.80
2010,11,14,13,50,4.80
2010,11,14,13,51,3.20
2010,11,14,13,52,4.80
2010,11,14,13,53,14.50
2010,11,14,13,54,6.40
2010,11,14,13,55,6.40
2010,11,14,13,56,9.60
2010,11,14,13,57,8.10
2010,11,14,13,58,4.80
2010,11,14,13,59,1.60
2010,11,14,14,00,6.40
2010,11,14,14,01,6.40
2010,11,14,14,02,8.10
2010,11,14,14,03,6.40
2010,11,14,14,04,6.40
2010,11,14,14,05,3.20
2010,11,14,14,06,4.80
2010,11,14,14,07,6.40
2010,11,14,14,08,8.10
2010,11,14,14,09,9.60
2010,11,14,14,10,8.10
2010,11,14,14,11,9.60
2010,11,14,14,12,14.50
2010,11,14,14,13,8.10
2010,11,14,14,14,4.80
2010,11,14,14,15,6.40
2010,11,14,14,16,8.10
2010,11,14,14,17,9.60
2010,11,14,14,18,9.60
2010,11,14,14,19,6.40
2010,11,14,14,20,16.10
2010,11,14,14,21,9.60
2010,11,14,14,22,8.10
2010,11,14,14,23,6.40
2010,11,14,14,24,4.80
2010,11,14,14,25,11.30
2010,11,14,14,26,8.10
2010,11,14,14,27,9.60
2010,11,14,14,28,6.40
2010,11,14,14,29,16.10
2010,11,14,14,30,16.10
2010,11,14,14,31,17.70
2010,11,14,14,32,9.60
2010,11,14,14,33,12.90
2010,11,14,14,34,17.70
2010,11,14,14,35,14.50
2010,11,14,14,36,16.10
2010,11,14,14,37,8.10
2010,11,14,14,38,8.10
2010,11,14,14,39,6.40
2010,11,14,14,40,6.40
2010,11,14,14,41,11.30
2010,11,14,14,42,11.30
2010,11,14,14,43,16.10
2010,11,14,14,44,3.20
2010,11,14,14,45,11.30
2010,11,14,14,46,17.70
2010,11,14,14,47,9.60
2010,11,14,14,48,6.40
2010,11,14,14,49,9.60
2010,11,14,14,50,11.30
2010,11,14,14,51,8.10
2010,11,14,14,52,19.30
2010,11,14,14,53,19.30
2010,11,14,14,54,9.60
2010,11,14,14,55,6.40
2010,11,14,14,56,11.30
2010,11,14,14,57,9.60
2010,11,14,14,58,11.30
2010,11,14,14,59,11.30
2010,11,14,15,00,11.30
2010,11,14,15,01,6.40
2010,11,14,15,02,12.90
2010,11,14,15,03,19.30
2010,11,14,15,04,11.30
2010,11,14,15,05,16.10
2010,11,14,15,06,16.10
2010,11,14,15,07,4.80
2010,11,14,15,08,1.60
2010,11,14,15,09,3.20
2010,11,14,15,10,4.80
2010,11,14,15,11,6.40
2010,11,14,15,12,4.80
2010,11,14,15,13,6.40
2010,11,14,15,14,1.60
2010,11,14,15,15,9.60
2010,11,14,15,16,11.30
2010,11,14,15,17,8.10
2010,11,14,15,18,9.60
2010,11,14,15,19,1.60
2010,11,14,15,20,8.10
2010,11,14,15,21,16.10
2010,11,14,15,22,11.30
2010,11,14,15,23,6.40
2010,11,14,15,24,4.80
2010,11,14,15,25,3.20
2010,11,14,15,26,4.80
2010,11,14,15,27,9.60
2010,11,14,15,28,8.10
2010,11,14,15,29,4.80
2010,11,14,15,30,3.20
2010,11,14,15,31,6.40
2010,11,14,15,32,4.80
2010,11,14,15,33,3.20
2010,11,14,15,34,3.20
2010,11,14,15,35,3.20
2010,11,14,15,36,8.10
2010,11,14,15,37,12.90
2010,11,14,15,38,6.40
2010,11,14,15,39,4.80
2010,11,14,15,40,4.80
2010,11,14,15,41,8.10
2010,11,14,15,42,6.40
2010,11,14,15,43,4.80
2010,11,14,15,44,11.30
2010,11,14,15,45,8.10
2010,11,14,15,46,4.80
2010,11,14,15,47,8.10
2010,11,14,15,48,6.40
2010,11,14,15,49,8.10
2010,11,14,15,50,4.80
2010,11,14,15,51,16.10
2010,11,14,15,52,19.30
2010,11,14,15,53,9.60
2010,11,14,15,54,17.70
2010,11,14,15,55,16.10
2010,11,14,15,56,14.50
2010,11,14,15,57,11.30
2010,11,14,15,58,11.30
2010,11,14,15,59,9.60
2010,11,14,16,00,12.90
2010,11,14,16,01,8.10
2010,11,14,16,02,6.40
2010,11,14,16,03,16.10
2010,11,14,16,04,14.50
2010,11,14,16,05,9.60
2010,11,14,16,06,8.10
2010,11,14,16,07,11.30
2010,11,14,16,08,11.30
2010,11,14,16,09,9.60
2010,11,14,16,10,11.30
2010,11,14,16,11,16.10
2010,11,14,16,12,9.60
2010,11,14,16,13,9.60
2010,11,14,16,14,4.80
2010,11,14,16,15,8.10
2010,11,14,16,16,8.10
2010,11,14,16,17,8.10
2010,11,14,16,18,8.10
2010,11,14,16,19,8.10
2010,11,14,16,20,3.20
2010,11,14,16,21,1.60
2010,11,14,16,22,3.20
2010,11,14,16,23,1.60
2010,11,14,16,24,4.80
2010,11,14,16,25,4.80
2010,11,14,16,26,6.40
2010,11,14,16,27,6.40
2010,11,14,16,28,11.30
2010,11,14,16,29,9.60
2010,11,14,16,30,9.60
2010,11,14,16,31,8.10
2010,11,14,16,32,11.30
2010,11,14,16,33,12.90
2010,11,14,16,34,9.60
2010,11,14,16,35,9.60
2010,11,14,16,36,9.60
2010,11,14,16,37,9.60
2010,11,14,16,38,8.10
2010,11,14,16,39,9.60
2010,11,14,16,40,6.40
2010,11,14,16,41,6.40
2010,11,14,16,42,8.10
2010,11,14,16,43,9.60
2010,11,14,16,44,16.10
2010,11,14,16,45,12.90
2010,11,14,16,46,9.60
2010,11,14,16,47,8.10
2010,11,14,16,48,11.30
2010,11,14,16,49,8.10
2010,11,14,16,50,4.80
2010,11,14,16,51,6.40
2010,11,14,16,52,6.40
2010,11,14,16,53,4.80
2010,11,14,16,54,4.80
2010,11,14,16,55,4.80
2010,11,14,16,56,6.40
2010,11,14,16,57,4.80
2010,11,14,16,58,3.20
2010,11,14,16,59,9.60
2010,11,14,17,00,8.10
2010,11,14,17,01,8.10
2010,11,14,17,02,6.40
2010,11,14,17,03,4.80
2010,11,14,17,04,1.60
2010,11,14,17,05,1.60
2010,11,14,17,06,4.80
2010,11,14,17,07,6.40
2010,11,14,17,08,4.80
2010,11,14,17,09,3.20
2010,11,14,17,10,1.60
2010,11,14,17,11,3.20
2010,11,14,17,12,4.80
2010,11,14,17,13,4.80
2010,11,14,17,14,3.20
2010,11,14,17,15,4.80
2010,11,14,17,16,1.60
2010,11,14,17,17,1.60
2010,11,14,17,18,8.10
2010,11,14,17,19,8.10
2010,11,14,17,20,6.40
2010,11,14,17,21,4.80
2010,11,14,17,22,3.20
2010,11,14,17,23,4.80
2010,11,14,17,24,4.80
2010,11,14,17,25,4.80
2010,11,14,17,26,6.40
2010,11,14,17,27,6.40
2010,11,14,17,28,8.10
2010,11,14,17,29,4.80
2010,11,14,17,30,3.20
2010,11,14,17,31,4.80
2010,11,14,17,32,3.20
2010,11,14,17,33,4.80
2010,11,14,17,34,4.80
2010,11,14,17,35,1.60
2010,11,14,17,36,4.80
2010,11,14,17,37,3.20
2010,11,14,17,38,3.20
2010,11,14,17,39,1.60
2010,11,14,17,40,1.60
2010,11,14,17,41,3.20
2010,11,14,17,42,1.60
2010,11,14,17,43,1.60
2010,11,14,17,44,3.20
2010,11,14,17,45,1.60
2010,11,14,17,46,1.60
2010,11,14,17,47,3.20
2010,11,14,17,48,3.20
2010,11,14,17,49,3.20
2010,11,14,17,50,3.20
2010,11,14,17,51,3.20
2010,11,14,17,52,3.20
2010,11,14,17,53,3.20
2010,11,14,17,54,3.20
2010,11,14,17,55,1.60
2010,11,14,17,56,3.20
2010,11,14,17,57,3.20
2010,11,14,17,58,3.20
2010,11,14,17,59,3.20
2010,11,14,18,00,3.20
2010,11,14,18,01,1.60
2010,11,14,18,02,1.60
2010,11,14,18,03,1.60
2010,11,14,18,06,3.20
2010,11,14,18,07,4.80
2010,11,14,18,08,3.20
2010,11,14,18,09,1.60
2010,11,14,18,10,1.60
2010,11,14,18,11,3.20
2010,11,14,18,12,4.80
2010,11,14,18,13,3.20
2010,11,14,18,14,1.60
2010,11,14,18,15,1.60
2010,11,14,18,17,4.80
2010,11,14,18,18,1.60
2010,11,14,18,19,1.60
2010,11,14,18,21,3.20
2010,11,14,18,22,1.60
2010,11,14,18,25,1.60
2010,11,14,18,26,1.60
2010,11,14,18,27,1.60
2010,11,14,18,28,3.20
2010,11,14,18,30,1.60
2010,11,14,18,31,1.60
2010,11,14,18,32,3.20
2010,11,14,18,33,3.20
2010,11,14,18,34,3.20
2010,11,14,18,35,1.60
2010,11,14,18,36,1.60
2010,11,14,18,37,1.60
2010,11,14,18,38,1.60
2010,11,14,18,57,1.60
2010,11,14,18,58,1.60
2010,11,14,19,00,1.60
2010,11,14,19,02,1.60
2010,11,14,19,03,3.20
2010,11,14,19,04,3.20
2010,11,14,19,05,1.60
2010,11,14,19,06,1.60
2010,11,14,19,10,4.80
2010,11,14,19,11,6.40
2010,11,14,19,12,4.80
2010,11,14,19,13,1.60
2010,11,14,19,14,1.60
2010,11,14,19,27,1.60
2010,11,14,19,36,3.20
2010,11,14,19,37,1.60
2010,11,14,19,38,1.60
2010,11,14,19,39,1.60
2010,11,14,19,42,1.60
2010,11,14,19,43,3.20
2010,11,14,19,44,1.60
2010,11,14,19,45,4.80
2010,11,14,19,46,3.20
2010,11,14,19,47,3.20
2010,11,14,19,48,3.20
2010,11,14,19,49,3.20
2010,11,14,19,50,3.20
2010,11,14,19,51,3.20
2010,11,14,19,52,3.20
2010,11,14,19,53,3.20
2010,11,14,19,54,4.80
2010,11,14,19,55,3.20
2010,11,14,19,56,4.80
2010,11,14,19,57,3.20
2010,11,14,19,58,3.20
2010,11,14,20,00,3.20
2010,11,14,20,01,3.20
2010,11,14,20,02,4.80
2010,11,14,20,03,1.60
2010,11,14,20,04,1.60
2010,11,14,20,06,1.60
2010,11,14,20,07,1.60
2010,11,14,20,08,1.60
2010,11,14,20,09,1.60
2010,11,14,20,11,1.60
2010,11,14,20,12,1.60
2010,11,14,20,13,3.20
2010,11,14,20,14,1.60
2010,11,14,20,17,1.60
2010,11,14,20,19,1.60
2010,11,14,20,20,3.20
2010,11,14,20,21,4.80
2010,11,14,20,22,3.20
2010,11,14,20,23,4.80
2010,11,14,20,24,3.20
2010,11,14,20,25,3.20
2010,11,14,20,26,3.20
2010,11,14,20,27,1.60
2010,11,14,20,28,3.20
2010,11,14,20,29,4.80
2010,11,14,20,30,6.40
2010,11,14,20,31,3.20
2010,11,14,20,32,3.20
2010,11,14,20,33,1.60
2010,11,14,20,34,6.40
2010,11,14,20,35,4.80
2010,11,14,20,36,1.60
2010,11,14,20,37,1.60
2010,11,14,20,38,1.60
2010,11,14,20,39,1.60
2010,11,14,20,40,1.60
2010,11,14,20,41,3.20
2010,11,14,20,42,6.40
2010,11,14,20,43,4.80
2010,11,14,20,44,4.80
2010,11,14,20,45,6.40
2010,11,14,20,46,8.10
2010,11,14,20,47,8.10
2010,11,14,20,48,8.10
2010,11,14,20,49,4.80
2010,11,14,20,50,6.40
2010,11,14,20,51,6.40
2010,11,14,20,52,8.10
2010,11,14,20,53,9.60
2010,11,14,20,54,9.60
2010,11,14,20,55,6.40
2010,11,14,20,56,8.10
2010,11,14,20,57,8.10
2010,11,14,20,58,9.60
2010,11,14,20,59,11.30
2010,11,14,21,00,11.30
2010,11,14,21,01,8.10
2010,11,14,21,02,4.80
2010,11,14,21,03,9.60
2010,11,14,21,04,8.10
2010,11,14,21,05,8.10
2010,11,14,21,06,6.40
2010,11,14,21,07,8.10
2010,11,14,21,08,8.10
2010,11,14,21,09,9.60
2010,11,14,21,10,11.30
2010,11,14,21,11,6.40
2010,11,14,21,12,8.10
2010,11,14,21,13,9.60
2010,11,14,21,14,4.80
2010,11,14,21,15,8.10
2010,11,14,21,16,6.40
2010,11,14,21,17,4.80
2010,11,14,21,18,8.10
2010,11,14,21,19,6.40
2010,11,14,21,20,4.80
2010,11,14,21,21,1.60
2010,11,14,21,22,1.60
2010,11,14,21,23,6.40
2010,11,14,21,24,4.80
2010,11,14,21,25,3.20
2010,11,14,21,26,8.10
2010,11,14,21,27,6.40
2010,11,14,21,28,6.40
2010,11,14,21,29,4.80
2010,11,14,21,30,4.80
2010,11,14,21,31,8.10
2010,11,14,21,32,8.10
2010,11,14,21,33,9.60
2010,11,14,21,34,11.30
2010,11,14,21,35,6.40
2010,11,14,21,36,8.10
2010,11,14,21,37,6.40
2010,11,14,21,38,6.40
2010,11,14,21,39,8.10
2010,11,14,21,40,8.10
2010,11,14,21,41,11.30
2010,11,14,21,42,11.30
2010,11,14,21,43,11.30
2010,11,14,21,44,11.30
2010,11,14,21,45,9.60
2010,11,14,21,46,4.80
2010,11,14,21,47,6.40
2010,11,14,21,48,8.10
2010,11,14,21,49,8.10
2010,11,14,21,50,8.10
2010,11,14,21,51,8.10
2010,11,14,21,52,6.40
2010,11,14,21,53,4.80
2010,11,14,21,54,3.20
2010,11,14,21,55,6.40
2010,11,14,21,56,6.40
2010,11,14,21,57,4.80
2010,11,14,21,58,8.10
2010,11,14,21,59,6.40
2010,11,14,22,00,8.10
2010,11,14,22,01,6.40
2010,11,14,22,02,6.40
2010,11,14,22,03,4.80
2010,11,14,22,04,6.40
2010,11,14,22,05,8.10
2010,11,14,22,06,8.10
2010,11,14,22,07,8.10
2010,11,14,22,08,9.60
2010,11,14,22,09,6.40
2010,11,14,22,10,14.50
2010,11,14,22,11,8.10
2010,11,14,22,12,6.40
2010,11,14,22,13,3.20
2010,11,14,22,14,4.80
2010,11,14,22,15,6.40
2010,11,14,22,16,1.60
2010,11,14,22,17,6.40
2010,11,14,22,18,9.60
2010,11,14,22,19,6.40
2010,11,14,22,20,4.80
2010,11,14,22,21,8.10
2010,11,14,22,22,6.40
2010,11,14,22,23,6.40
2010,11,14,22,24,8.10
2010,11,14,22,25,6.40
2010,11,14,22,26,4.80
2010,11,14,22,27,4.80
2010,11,14,22,28,3.20
2010,11,14,22,29,3.20
2010,11,14,22,30,3.20
2010,11,14,22,31,4.80
2010,11,14,22,32,3.20
2010,11,14,22,33,4.80
2010,11,14,22,34,4.80
2010,11,14,22,35,4.80
2010,11,14,22,36,4.80
2010,11,14,22,37,6.40
2010,11,14,22,38,6.40
2010,11,14,22,39,4.80
2010,11,14,22,40,4.80
2010,11,14,22,41,4.80
2010,11,14,22,42,3.20
2010,11,14,22,43,6.40
2010,11,14,22,44,4.80
2010,11,14,22,45,3.20
2010,11,14,22,46,1.60
2010,11,14,22,47,3.20
2010,11,14,22,48,4.80
2010,11,14,22,49,4.80
2010,11,14,22,50,4.80
2010,11,14,22,51,4.80
2010,11,14,22,52,4.80
2010,11,14,22,53,8.10
2010,11,14,22,54,4.80
2010,11,14,22,55,3.20
2010,11,14,22,56,4.80
2010,11,14,22,57,8.10
2010,11,14,22,58,3.20
2010,11,14,22,59,3.20
2010,11,14,23,00,8.10
2010,11,14,23,01,4.80
2010,11,14,23,02,4.80
2010,11,14,23,03,6.40
2010,11,14,23,04,3.20
2010,11,14,23,05,6.40
2010,11,14,23,06,6.40
2010,11,14,23,07,8.10
2010,11,14,23,08,6.40
2010,11,14,23,09,3.20
2010,11,14,23,10,14.50
2010,11,14,23,11,9.60
2010,11,14,23,12,4.80
2010,11,14,23,13,9.60
2010,11,14,23,14,9.60
2010,11,14,23,15,8.10
2010,11,14,23,16,9.60
2010,11,14,23,17,8.10
2010,11,14,23,18,4.80
2010,11,14,23,19,9.60
2010,11,14,23,20,8.10
2010,11,14,23,21,6.40
2010,11,14,23,22,8.10
2010,11,14,23,23,8.10
2010,11,14,23,24,9.60
2010,11,14,23,25,9.60
2010,11,14,23,26,9.60
2010,11,14,23,27,16.10
2010,11,14,23,28,17.70
2010,11,14,23,29,9.60
2010,11,14,23,30,9.60
2010,11,14,23,31,14.50
2010,11,14,23,32,11.30
2010,11,14,23,33,11.30
2010,11,14,23,34,12.90
2010,11,14,23,35,16.10
2010,11,14,23,36,16.10
2010,11,14,23,37,19.30
2010,11,14,23,38,16.10
2010,11,14,23,39,20.90
2010,11,14,23,40,22.50
2010,11,14,23,41,11.30
2010,11,14,23,42,25.70
2010,11,14,23,43,17.70
2010,11,14,23,44,17.70
2010,11,14,23,45,14.50
2010,11,14,23,46,14.50
2010,11,14,23,47,14.50
2010,11,14,23,48,16.10
2010,11,14,23,49,16.10
2010,11,14,23,50,20.90
2010,11,14,23,51,8.10
2010,11,14,23,52,11.30
2010,11,14,23,53,16.10
2010,11,14,23,54,12.90
2010,11,14,23,55,16.10
2010,11,14,23,56,14.50
2010,11,14,23,57,12.90
2010,11,14,23,58,8.10
2010,11,14,23,59,11.30
